Total_Precipitation_Accumulation
0.53 0.62 0.82 0.63 0.44 0.48 0.57 0.59 0.54 0.49 0.45 0.47 0.50 0.46 0.45 0.49 0.48 0.46 0.45 0.51 0.56 0.60 0.60 0.65 0.61 0.63 0.65 0.59 0.60 0.50 0.45 0.45 0.53 0.62 0.68 0.68 0.75 0.99 1.27 1.35 1.39 0.89 0.85
0.30 0.38 0.60 0.53 0.38 0.41 0.52 0.54 0.51 0.50 0.45 0.48 0.54 0.55 0.60 0.61 0.54 0.47 0.49 0.52 0.55 0.59 0.54 0.49 0.47 0.49 0.53 0.49 0.44 0.38 0.44 0.56 0.70 0.87 0.87 0.73 0.77 0.97 1.18 1.22 1.37 0.81 0.74
0.23 0.30 0.41 0.45 0.37 0.38 0.50 0.54 0.56 0.62 0.60 0.58 0.59 0.61 0.64 0.58 0.53 0.50 0.50 0.49 0.51 0.52 0.45 0.42 0.40 0.37 0.40 0.40 0.41 0.44 0.55 0.74 0.99 1.16 1.31 0.81 0.57 0.88 1.00 1.00 0.90 0.74 0.71
0.25 0.26 0.28 0.36 0.37 0.39 0.50 0.56 0.71 0.72 0.67 0.62 0.63 0.60 0.55 0.52 0.49 0.47 0.48 0.48 0.51 0.47 0.42 0.37 0.34 0.31 0.33 0.32 0.39 0.51 0.66 0.84 1.05 1.44 1.43 0.72 0.43 0.60 0.77 0.79 0.70 0.69 0.64
0.25 0.27 0.30 0.34 0.35 0.45 0.54 0.61 0.67 0.60 0.54 0.55 0.60 0.58 0.56 0.53 0.50 0.47 0.47 0.45 0.47 0.44 0.39 0.32 0.31 0.31 0.31 0.33 0.43 0.57 0.70 0.83 1.15 1.32 0.92 0.80 0.75 0.68 0.63 0.68 0.72 0.68 0.55
0.24 0.27 0.30 0.34 0.38 0.45 0.46 0.49 0.56 0.57 0.51 0.52 0.54 0.56 0.57 0.55 0.55 0.49 0.42 0.39 0.40 0.41 0.38 0.34 0.32 0.31 0.33 0.39 0.46 0.58 0.74 0.96 1.10 0.74 0.63 0.61 0.63 0.71 0.63 0.78 0.86 0.74 0.60
0.31 0.33 0.34 0.41 0.46 0.47 0.44 0.47 0.48 0.50 0.52 0.55 0.53 0.51 0.51 0.49 0.50 0.47 0.39 0.34 0.35 0.36 0.34 0.33 0.33 0.37 0.41 0.45 0.50 0.60 0.77 1.08 0.86 0.56 0.61 0.67 0.63 0.61 0.70 0.92 1.07 0.95 0.78
0.50 0.49 0.49 0.54 0.52 0.52 0.49 0.49 0.46 0.46 0.46 0.44 0.43 0.45 0.43 0.40 0.44 0.48 0.45 0.36 0.33 0.34 0.31 0.31 0.32 0.39 0.46 0.51 0.57 0.62 0.75 0.81 0.50 0.44 0.45 0.53 0.47 0.51 0.73 0.95 1.11 1.09 0.99
0.75 0.61 0.58 0.64 0.64 0.60 0.66 0.60 0.54 0.48 0.46 0.45 0.44 0.45 0.43 0.39 0.39 0.42 0.48 0.45 0.37 0.40 0.38 0.37 0.35 0.40 0.47 0.55 0.58 0.62 0.72 0.73 0.55 0.52 0.46 0.48 0.48 0.67 1.00 1.13 1.14 1.13 1.10
1.19 0.96 0.83 0.74 0.67 0.64 0.64 0.64 0.61 0.55 0.49 0.48 0.47 0.43 0.46 0.46 0.44 0.48 0.46 0.49 0.48 0.51 0.55 0.51 0.48 0.48 0.50 0.52 0.58 0.64 0.67 0.63 0.62 0.59 0.54 0.43 0.55 0.83 1.15 1.28 1.30 1.24 1.15
1.44 1.27 1.01 0.82 0.78 0.78 0.68 0.63 0.71 0.68 0.62 0.62 0.62 0.58 0.71 0.85 0.74 0.79 0.66 0.73 0.71 0.73 0.77 0.76 0.77 0.77 0.73 0.63 0.73 0.81 0.72 0.73 0.76 0.67 0.54 0.45 0.64 0.93 1.23 1.36 1.35 1.33 1.21
1.57 1.34 1.17 0.99 0.87 0.79 0.71 0.82 1.05 0.87 0.88 0.96 1.03 1.03 1.25 1.44 1.41 0.92 0.93 1.16 1.22 1.29 1.27 1.27 1.28 1.09 0.94 0.88 1.28 1.48 0.88 0.85 0.88 0.79 0.67 0.69 0.94 1.20 1.47 1.42 1.33 1.34 1.23
1.84 1.63 1.40 1.18 0.99 0.90 1.02 0.93 1.06 1.21 1.30 1.32 1.33 1.32 1.48 1.40 1.19 1.02 1.14 1.39 1.62 1.69 1.58 1.75 1.82 1.49 1.54 1.76 1.77 1.59 1.12 1.23 1.22 1.13 0.98 1.11 1.33 1.63 2.01 1.81 1.50 1.35 1.28
1.97 1.86 1.80 1.50 1.33 1.40 1.33 1.08 1.01 1.05 1.17 1.35 1.59 1.54 1.60 1.79 1.69 1.62 1.68 1.70 1.83 2.03 2.28 2.21 2.37 2.22 2.13 2.00 1.98 1.86 1.62 1.63 1.59 1.69 1.64 1.49 1.56 1.82 2.30 2.28 1.85 1.55 1.38
2.06 2.05 2.06 1.95 1.78 1.85 1.67 1.48 1.26 1.37 1.38 1.45 1.59 1.74 1.66 1.89 2.05 2.04 1.99 1.96 1.85 1.93 2.09 2.29 2.32 2.67 2.78 2.41 2.02 1.89 1.88 1.95 1.86 1.85 1.77 1.68 1.61 1.74 2.12 2.36 2.23 1.99 1.69
2.40 2.41 2.25 2.20 2.21 2.19 2.10 2.07 1.97 1.73 1.77 1.70 1.68 1.68 1.71 1.94 2.18 2.29 2.14 2.10 1.96 1.91 2.07 2.25 2.41 2.91 2.93 2.73 2.30 2.07 1.98 1.94 1.78 1.71 1.80 1.98 1.79 1.68 1.81 2.10 2.31 2.29 2.14
2.83 2.84 2.83 2.79 2.93 2.87 2.70 2.55 2.34 2.18 2.02 1.99 2.05 2.05 1.94 1.97 2.17 2.19 2.02 1.91 1.95 2.08 2.25 2.28 2.41 2.73 2.49 2.47 2.27 2.11 1.90 1.71 1.54 1.50 1.67 1.85 1.73 1.67 1.79 1.93 2.13 2.23 2.33
3.09 3.21 3.35 3.37 3.38 3.25 3.22 3.13 2.87 2.65 2.47 2.31 2.26 2.28 2.12 2.04 2.06 2.22 2.02 1.86 2.17 2.22 2.30 2.53 2.67 2.68 2.63 2.62 2.39 2.07 1.83 1.70 1.38 1.27 1.30 1.41 1.61 1.42 1.67 1.88 1.93 2.00 2.24
3.57 3.80 3.95 3.95 3.81 3.56 3.57 3.53 3.38 3.20 2.87 2.51 2.37 2.27 2.10 2.03 2.12 2.39 2.36 2.43 2.50 2.54 2.56 2.42 2.74 2.77 2.66 2.67 2.32 2.05 1.67 1.48 1.29 1.14 1.08 1.05 1.20 1.29 1.37 1.49 1.63 1.73 2.10
4.10 4.48 4.30 4.17 4.33 4.20 4.03 3.86 3.58 3.13 2.73 2.59 2.52 2.32 2.17 2.16 2.23 2.58 2.44 2.44 2.53 2.67 2.71 2.64 2.68 2.69 2.43 2.39 2.17 1.93 1.53 1.21 1.12 1.05 0.91 0.88 0.93 0.91 1.07 1.32 1.55 1.38 1.73
4.15 4.54 4.69 4.67 4.54 4.31 3.88 3.54 3.29 3.06 2.90 2.65 2.47 2.38 2.24 2.12 2.23 2.56 2.45 2.62 2.58 2.59 2.59 2.62 2.65 2.51 2.12 2.31 2.41 1.95 1.43 1.10 1.09 0.86 0.78 0.81 0.84 0.84 1.04 1.34 1.54 1.53 1.42
3.81 4.27 4.55 4.69 4.57 4.17 3.74 3.50 3.34 3.27 2.91 2.60 2.56 2.59 2.41 2.41 2.40 2.42 2.53 2.50 2.55 2.66 2.57 2.52 2.57 2.38 2.00 2.14 2.35 2.42 1.81 1.41 1.07 0.74 0.80 0.91 1.00 1.10 1.13 1.24 1.41 1.56 1.53
3.35 3.66 3.78 3.92 3.88 3.72 3.71 3.68 3.59 3.52 3.07 2.92 2.89 2.86 2.69 2.64 2.58 2.54 2.52 2.42 2.36 2.23 2.26 2.33 2.33 2.31 2.15 2.05 2.24 2.52 2.13 1.66 1.36 0.94 0.85 0.91 1.12 1.34 1.34 1.38 1.37 1.53 1.66
2.89 3.24 3.47 3.52 3.47 3.37 3.44 3.45 3.31 3.09 2.91 3.00 3.23 3.19 2.91 2.66 2.45 2.21 2.08 2.14 2.12 2.02 2.03 1.82 1.89 2.01 1.98 1.82 1.96 2.02 2.04 2.08 2.01 1.41 1.01 0.91 1.08 1.24 1.36 1.28 1.27 1.43 1.65
2.50 2.79 3.03 3.30 3.38 3.31 3.34 3.26 3.24 3.11 3.10 3.11 3.05 2.99 2.74 2.50 2.15 1.84 1.74 1.82 1.83 1.76 1.69 1.62 1.75 1.67 1.61 1.57 1.73 1.88 1.96 2.04 2.01 1.89 1.51 1.41 1.38 1.21 1.20 1.23 1.36 1.47 1.52
2.14 2.25 2.39 2.60 2.87 3.03 3.05 3.03 3.04 2.96 2.94 2.85 2.71 2.53 2.31 2.10 1.83 1.56 1.43 1.55 1.65 1.68 1.64 1.61 1.68 1.57 1.56 1.66 1.64 1.69 1.87 1.86 1.87 2.02 1.76 1.65 1.59 1.30 1.22 1.31 1.36 1.52 1.57